Time,TemperatureF,DewpointF,PressureIn,WindDirection,WindDirectionDegrees,WindSpeedMPH,WindSpeedGustMPH,Humidity,HourlyPrecipIn,Conditions,Clouds,dailyrainin,SoftwareType,DateUTC
2013-05-02 00:00:00,54.1,28.4,30.33,SE,145,8.1,8.1,37,0.00,CLR,,0.00,WeatherDisplay:10.37,2013-05-02 04:00:00,
2013-05-02 00:01:00,54.1,28.4,30.33,ESE,122,10.4,10.4,37,0.00,CLR,,0.00,WeatherDisplay:10.37,2013-05-02 04:01:00,
2013-05-02 00:02:00,54.1,28.4,30.33,ESE,118,12.7,12.7,37,0.00,CLR,,0.00,WeatherDisplay:10.37,2013-05-02 04:02:00,
2013-05-02 00:03:00,54.1,28.4,30.33,ESE,109,12.7,12.7,37,0.00,CLR,,0.00,WeatherDisplay:10.37,2013-05-02 04:03:00,
2013-05-02 00:08:00,54.3,28.6,30.33,ESE,123,7.6,7.6,37,0.00,CLR,,0.00,WeatherDisplay:10.37,2013-05-02 04:08:00,
2013-05-02 00:13:00,53.8,28.1,30.33,SE,144,5.8,5.8,37,0.00,CLR,,0.00,WeatherDisplay:10.37,2013-05-02 04:13:00,
2013-05-02 00:18:00,52.7,27.8,30.33,SSE,151,8.1,8.1,38,0.00,CLR,,0.00,WeatherDisplay:10.37,2013-05-02 04:18:00,
2013-05-02 00:23:00,52.2,27.9,30.33,SSE,162,5.8,5.8,39,0.00,CLR,,0.00,WeatherDisplay:10.37,2013-05-02 04:23:00,
2013-05-02 00:28:00,51.3,28.9,30.33,SE,136,8.7,8.7,42,0.00,CLR,,0.00,WeatherDisplay:10.37,2013-05-02 04:28:00,
2013-05-02 00:33:00,50.9,29.2,30.33,SE,143,8.1,8.1,43,0.00,CLR,,0.00,WeatherDisplay:10.37,2013-05-02 04:33:00,
2013-05-02 00:38:00,50.9,29.2,30.33,South,171,6.3,6.7,43,0.00,CLR,,0.00,WeatherDisplay:10.37,2013-05-02 04:38:00,
2013-05-02 00:43:00,50.9,29.7,30.33,SE,146,8.1,8.1,44,0.00,CLR,,0.00,WeatherDisplay:10.37,2013-05-02 04:43:00,
2013-05-02 00:48:00,50.7,30.1,30.33,SSE,152,8.1,8.1,45,0.00,CLR,,0.00,WeatherDisplay:10.37,2013-05-02 04:48:00,
2013-05-02 00:53:00,50.2,30.2,30.33,SE,137,6.9,6.9,46,0.00,CLR,,0.00,WeatherDisplay:10.37,2013-05-02 04:53:00,
2013-05-02 00:58:00,49.8,29.8,30.33,SSE,151,9.2,9.2,46,0.00,CLR,,0.00,WeatherDisplay:10.37,2013-05-02 04:58:00,
2013-05-02 01:03:00,49.6,29.7,30.33,SSE,158,6.3,6.3,46,0.00,CLR,,0.00,WeatherDisplay:10.37,2013-05-02 05:03:00,
2013-05-02 01:08:00,49.5,30.0,30.33,SE,137,5.8,6.7,47,0.00,CLR,,0.00,WeatherDisplay:10.37,2013-05-02 05:08:00,
2013-05-02 01:13:00,49.6,30.2,30.33,SSE,159,9.2,9.2,47,0.00,CLR,,0.00,WeatherDisplay:10.37,2013-05-02 05:13:00,
2013-05-02 01:18:00,49.8,30.4,30.33,ESE,111,10.4,10.4,47,0.00,CLR,,0.00,WeatherDisplay:10.37,2013-05-02 05:18:00,
2013-05-02 01:23:00,50.2,30.7,30.33,SSE,152,8.7,8.7,47,0.00,CLR,,0.00,WeatherDisplay:10.37,2013-05-02 05:23:00,
2013-05-02 01:28:00,50.4,30.3,30.33,SSE,159,11.5,11.5,46,0.00,CLR,,0.00,WeatherDisplay:10.37,2013-05-02 05:28:00,
2013-05-02 01:33:00,50.7,30.7,30.33,SSE,159,8.1,8.1,46,0.00,CLR,,0.00,WeatherDisplay:10.37,2013-05-02 05:33:00,
2013-05-02 01:38:00,50.2,30.2,30.33,SSE,147,8.1,8.1,46,0.00,CLR,,0.00,WeatherDisplay:10.37,2013-05-02 05:38:00,
2013-05-02 01:43:00,49.8,30.4,30.33,SSE,149,10.4,10.4,47,0.00,CLR,,0.00,WeatherDisplay:10.37,2013-05-02 05:43:00,
2013-05-02 01:48:00,50.4,30.3,30.33,SSW,195,9.2,9.2,46,0.00,CLR,,0.00,WeatherDisplay:10.37,2013-05-02 05:48:00,
2013-05-02 01:53:00,50.7,30.7,30.33,South,177,9.2,9.2,46,0.00,CLR,,0.00,WeatherDisplay:10.37,2013-05-02 05:53:00,
2013-05-02 01:58:00,50.5,30.5,30.33,SSE,159,6.9,6.9,46,0.00,CLR,,0.00,WeatherDisplay:10.37,2013-05-02 05:58:00,
2013-05-02 02:03:00,50.4,30.3,30.33,SSE,158,10.4,10.4,46,0.00,CLR,,0.00,WeatherDisplay:10.37,2013-05-02 06:03:00,
2013-05-02 02:08:00,50.2,30.2,30.33,SE,129,10.4,10.4,46,0.00,CLR,,0.00,WeatherDisplay:10.37,2013-05-02 06:08:00,
2013-05-02 02:13:00,50.2,30.2,30.33,SSE,161,5.8,5.8,46,0.00,CLR,,0.00,WeatherDisplay:10.37,2013-05-02 06:13:00,
2013-05-02 02:18:00,49.8,30.4,30.33,SSE,162,10.4,10.4,47,0.00,CLR,,0.00,WeatherDisplay:10.37,2013-05-02 06:18:00,
2013-05-02 02:23:00,49.6,30.2,30.33,SSE,150,12.7,12.7,47,0.00,CLR,,0.00,WeatherDisplay:10.37,2013-05-02 06:23:00,
2013-05-02 02:28:00,49.6,31.7,30.33,SSE,160,12.7,12.7,50,0.00,CLR,,0.00,WeatherDisplay:10.37,2013-05-02 06:28:00,
2013-05-02 02:33:00,49.6,32.2,30.33,SSE,151,11.5,11.5,51,0.00,CLR,,0.00,WeatherDisplay:10.37,2013-05-02 06:33:00,
2013-05-02 02:38:00,49.5,33.0,30.33,SSW,209,8.1,8.1,53,0.00,CLR,,0.00,WeatherDisplay:10.37,2013-05-02 06:38:00,
2013-05-02 02:43:00,49.5,33.5,30.33,South,181,10.4,10.4,54,0.00,CLR,,0.00,WeatherDisplay:10.37,2013-05-02 06:43:00,
2013-05-02 02:48:00,48.9,33.0,30.33,SSE,149,5.8,5.8,54,0.00,CLR,,0.00,WeatherDisplay:10.37,2013-05-02 06:48:00,
2013-05-02 02:53:00,48.7,33.3,30.33,SSW,204,4.6,4.6,55,0.00,CLR,,0.00,WeatherDisplay:10.37,2013-05-02 06:53:00,
2013-05-02 02:58:00,48.4,33.4,30.33,SSE,151,5.8,5.8,56,0.00,CLR,,0.00,WeatherDisplay:10.37,2013-05-02 06:58:00,
2013-05-02 03:03:00,48.0,33.9,30.33,SE,135,8.1,8.1,58,0.00,CLR,,0.00,WeatherDisplay:10.37,2013-05-02 07:03:00,
2013-05-02 03:08:00,47.8,34.2,30.33,SE,130,9.2,9.2,59,0.00,CLR,,0.00,WeatherDisplay:10.37,2013-05-02 07:08:00,
2013-05-02 03:13:00,47.8,35.0,30.33,SE,140,9.6,9.6,61,0.00,CLR,,0.00,WeatherDisplay:10.37,2013-05-02 07:13:00,
2013-05-02 03:18:00,47.8,35.8,30.33,SW,222,8.1,8.1,63,0.00,CLR,,0.00,WeatherDisplay:10.37,2013-05-02 07:18:00,
2013-05-02 03:23:00,47.7,35.7,30.33,South,181,8.1,8.1,63,0.00,CLR,,0.00,WeatherDisplay:10.37,2013-05-02 07:23:00,
2013-05-02 03:28:00,47.7,36.1,30.33,SSE,158,5.8,5.8,64,0.00,CLR,,0.00,WeatherDisplay:10.37,2013-05-02 07:28:00,
2013-05-02 03:33:00,47.5,35.9,30.33,WSW,238,8.1,8.1,64,0.00,CLR,,0.00,WeatherDisplay:10.37,2013-05-02 07:33:00,
2013-05-02 03:38:00,47.3,36.5,30.33,SE,142,8.1,8.1,66,0.00,CLR,,0.00,WeatherDisplay:10.37,2013-05-02 07:38:00,
2013-05-02 03:43:00,47.3,36.5,30.33,SSW,197,8.1,8.1,66,0.00,CLR,,0.00,WeatherDisplay:10.37,2013-05-02 07:43:00,
2013-05-02 03:48:00,47.3,37.3,30.33,SSE,150,10.4,10.4,68,0.00,CLR,,0.00,WeatherDisplay:10.37,2013-05-02 07:48:00,
2013-05-02 03:53:00,47.3,38.0,30.33,SSE,147,9.2,9.2,70,0.00,CLR,,0.00,WeatherDisplay:10.37,2013-05-02 07:53:00,
2013-05-02 03:58:00,47.3,38.0,30.33,SSE,157,11.5,11.5,70,0.00,CLR,,0.00,WeatherDisplay:10.37,2013-05-02 07:58:00,
2013-05-02 04:03:00,46.9,38.0,30.33,SSE,160,5.8,5.8,71,0.00,CLR,,0.00,WeatherDisplay:10.37,2013-05-02 08:03:00,
2013-05-02 04:08:00,46.8,38.2,30.33,SE,142,10.4,10.4,72,0.00,CLR,,0.00,WeatherDisplay:10.37,2013-05-02 08:08:00,
2013-05-02 04:13:00,46.6,39.1,30.33,SSE,162,11.5,11.5,75,0.00,CLR,,0.00,WeatherDisplay:10.37,2013-05-02 08:13:00,
2013-05-02 04:18:00,46.6,39.8,30.33,SSE,155,9.2,9.2,77,0.00,CLR,,0.00,WeatherDisplay:10.37,2013-05-02 08:18:00,
2013-05-02 04:23:00,46.2,39.4,30.33,SE,141,8.1,8.1,77,0.00,CLR,,0.00,WeatherDisplay:10.37,2013-05-02 08:23:00,
2013-05-02 04:28:00,46.0,38.9,30.33,SSE,159,9.2,9.2,76,0.00,CLR,,0.00,WeatherDisplay:10.37,2013-05-02 08:28:00,
2013-05-02 04:33:00,45.9,38.7,30.33,South,182,8.1,8.1,76,0.00,CLR,,0.00,WeatherDisplay:10.37,2013-05-02 08:33:00,
2013-05-02 04:38:00,45.9,39.4,30.33,SSE,157,9.2,9.2,78,0.00,CLR,,0.00,WeatherDisplay:10.37,2013-05-02 08:38:00,
2013-05-02 04:43:00,45.7,38.9,30.33,SSE,165,8.1,8.1,77,0.00,CLR,,0.00,WeatherDisplay:10.37,2013-05-02 08:43:00,
2013-05-02 04:48:00,45.3,38.9,30.33,SSE,147,8.1,8.1,78,0.00,CLR,,0.00,WeatherDisplay:10.37,2013-05-02 08:48:00,
2013-05-02 04:53:00,45.1,38.7,30.33,SE,142,8.1,8.1,78,0.00,CLR,,0.00,WeatherDisplay:10.37,2013-05-02 08:53:00,
2013-05-02 04:58:00,45.0,38.5,30.33,SW,221,5.8,5.8,78,0.00,CLR,,0.00,WeatherDisplay:10.37,2013-05-02 08:58:00,
2013-05-02 05:03:00,44.8,38.3,30.33,South,183,8.1,8.1,78,0.00,CLR,,0.00,WeatherDisplay:10.37,2013-05-02 09:03:00,
2013-05-02 05:08:00,44.8,38.7,30.33,South,182,8.1,8.1,79,0.00,CLR,,0.00,WeatherDisplay:10.37,2013-05-02 09:08:00,
2013-05-02 05:13:00,44.6,38.5,30.33,SE,143,5.8,5.8,79,0.00,CLR,,0.00,WeatherDisplay:10.37,2013-05-02 09:13:00,
2013-05-02 05:18:00,44.6,38.8,30.33,SSE,158,8.1,8.1,80,0.00,CLR,,0.00,WeatherDisplay:10.37,2013-05-02 09:18:00,
2013-05-02 05:23:00,44.4,38.6,30.33,South,171,8.1,8.1,80,0.00,CLR,,0.00,WeatherDisplay:10.37,2013-05-02 09:23:00,
2013-05-02 05:28:00,44.2,38.8,30.33,SSE,147,6.9,6.9,81,0.00,CLR,,0.00,WeatherDisplay:10.37,2013-05-02 09:28:00,
2013-05-02 05:33:00,43.9,38.7,30.33,SSE,167,5.8,5.8,82,0.00,CLR,,0.00,WeatherDisplay:10.37,2013-05-02 09:33:00,
2013-05-02 05:38:00,43.7,38.9,30.33,SE,141,5.8,5.8,83,0.00,CLR,,0.00,WeatherDisplay:10.37,2013-05-02 09:38:00,
2013-05-02 05:43:00,43.7,39.2,30.30,ESE,111,5.8,5.8,84,0.00,CLR,,0.00,WeatherDisplay:10.37,2013-05-02 09:43:00,
2013-05-02 05:48:00,43.5,39.0,30.30,SE,127,9.2,9.2,84,0.00,CLR,,0.00,WeatherDisplay:10.37,2013-05-02 09:48:00,
2013-05-02 05:53:00,43.0,38.5,30.30,SE,133,8.1,8.1,84,0.00,CLR,,0.00,WeatherDisplay:10.37,2013-05-02 09:53:00,
2013-05-02 05:58:00,42.8,38.6,30.30,SE,129,8.1,8.1,85,0.00,CLR,,0.00,WeatherDisplay:10.37,2013-05-02 09:58:00,
2013-05-02 06:03:00,42.8,38.6,30.30,South,171,5.8,5.8,85,0.00,CLR,,0.00,WeatherDisplay:10.37,2013-05-02 10:03:00,
2013-05-02 06:08:00,42.8,38.9,30.30,SE,129,6.9,6.9,86,0.00,CLR,,0.00,WeatherDisplay:10.37,2013-05-02 10:08:00,
2013-05-02 06:13:00,42.6,38.7,30.33,SSE,158,8.1,8.1,86,0.00,CLR,,0.00,WeatherDisplay:10.37,2013-05-02 10:13:00,
2013-05-02 06:18:00,42.4,38.5,30.33,South,185,5.8,5.8,86,0.00,CLR,,0.00,WeatherDisplay:10.37,2013-05-02 10:18:00,
2013-05-02 06:23:00,42.3,38.4,30.33,SSE,157,9.2,9.2,86,0.00,CLR,,0.00,WeatherDisplay:10.37,2013-05-02 10:23:00,
2013-05-02 06:28:00,42.1,38.5,30.33,East,93,5.8,5.8,87,0.00,CLR,,0.00,WeatherDisplay:10.37,2013-05-02 10:28:00,
2013-05-02 06:33:00,42.1,38.5,30.33,SE,140,5.8,5.8,87,0.00,CLR,,0.00,WeatherDisplay:10.37,2013-05-02 10:33:00,
2013-05-02 06:38:00,41.7,38.1,30.33,SE,135,5.8,5.8,87,0.00,CLR,,0.00,WeatherDisplay:10.37,2013-05-02 10:38:00,
2013-05-02 06:43:00,41.7,38.4,30.33,South,169,5.8,5.8,88,0.00,CLR,,0.00,WeatherDisplay:10.37,2013-05-02 10:43:00,
2013-05-02 06:48:00,41.9,38.9,30.33,SSE,164,5.8,5.8,89,0.00,CLR,,0.00,WeatherDisplay:10.37,2013-05-02 10:48:00,
2013-05-02 06:53:00,42.1,39.4,30.33,SE,140,8.1,8.1,90,0.00,CLR,,0.00,WeatherDisplay:10.37,2013-05-02 10:53:00,
2013-05-02 06:58:00,42.6,40.2,30.33,SSE,151,5.8,5.8,91,0.00,CLR,,0.00,WeatherDisplay:10.37,2013-05-02 10:58:00,
2013-05-02 07:03:00,43.3,41.2,30.33,SSE,149,10.4,10.4,92,0.00,CLR,,0.00,WeatherDisplay:10.37,2013-05-02 11:03:00,
2013-05-02 07:08:00,43.9,41.4,30.33,SSE,154,8.1,8.1,91,0.00,CLR,,0.00,WeatherDisplay:10.37,2013-05-02 11:08:00,
2013-05-02 07:13:00,44.2,41.5,30.33,South,182,8.7,8.7,90,0.00,CLR,,0.00,WeatherDisplay:10.37,2013-05-02 11:13:00,
2013-05-02 07:18:00,44.6,41.3,30.33,South,184,11.5,11.5,88,0.00,CLR,,0.00,WeatherDisplay:10.37,2013-05-02 11:18:00,
2013-05-02 07:23:00,45.1,41.5,30.33,SE,142,10.4,10.4,87,0.00,CLR,,0.00,WeatherDisplay:10.37,2013-05-02 11:23:00,
2013-05-02 07:28:00,45.3,41.4,30.33,SE,144,5.8,5.8,86,0.00,CLR,,0.00,WeatherDisplay:10.37,2013-05-02 11:28:00,
2013-05-02 07:33:00,45.7,41.4,30.33,SSE,160,9.2,9.2,85,0.00,CLR,,0.00,WeatherDisplay:10.37,2013-05-02 11:33:00,
2013-05-02 07:38:00,46.0,41.2,30.33,ESE,103,8.1,8.1,83,0.00,CLR,,0.00,WeatherDisplay:10.37,2013-05-02 11:38:00,
2013-05-02 07:43:00,46.4,40.9,30.33,SSE,166,8.1,8.1,81,0.00,CLR,,0.00,WeatherDisplay:10.37,2013-05-02 11:43:00,
2013-05-02 07:48:00,46.8,40.6,30.33,ENE,76,8.1,8.1,79,0.00,CLR,,0.00,WeatherDisplay:10.37,2013-05-02 11:48:00,
2013-05-02 07:53:00,47.1,40.6,30.33,SSE,165,10.4,10.4,78,0.00,CLR,,0.00,WeatherDisplay:10.37,2013-05-02 11:53:00,
2013-05-02 07:58:00,47.3,40.1,30.33,SSE,161,11.5,11.5,76,0.00,CLR,,0.00,WeatherDisplay:10.37,2013-05-02 11:58:00,
2013-05-02 08:03:00,47.5,39.9,30.33,SSE,150,9.2,9.2,75,0.00,CLR,,0.00,WeatherDisplay:10.37,2013-05-02 12:03:00,
2013-05-02 08:08:00,47.7,39.4,30.33,SE,146,5.8,5.8,73,0.00,CLR,,0.00,WeatherDisplay:10.37,2013-05-02 12:08:00,
2013-05-02 08:13:00,48.2,39.2,30.33,South,184,10.4,10.4,71,0.00,CLR,,0.00,WeatherDisplay:10.37,2013-05-02 12:13:00,
2013-05-02 08:18:00,48.6,38.1,30.33,SSE,168,8.1,8.1,67,0.00,CLR,,0.00,WeatherDisplay:10.37,2013-05-02 12:18:00,
2013-05-02 08:23:00,48.9,37.3,30.33,SE,127,12.7,12.7,64,0.00,CLR,,0.00,WeatherDisplay:10.37,2013-05-02 12:23:00,
2013-05-02 08:28:00,49.5,37.4,30.33,SSE,154,8.7,8.7,63,0.00,CLR,,0.00,WeatherDisplay:10.37,2013-05-02 12:28:00,
2013-05-02 08:33:00,50.0,36.7,30.33,SE,124,9.2,9.2,60,0.00,CLR,,0.00,WeatherDisplay:10.37,2013-05-02 12:33:00,
2013-05-02 08:38:00,50.7,37.8,30.33,SE,135,11.5,11.5,61,0.00,CLR,,0.00,WeatherDisplay:10.37,2013-05-02 12:38:00,
2013-05-02 08:43:00,51.1,35.9,30.36,SSE,151,12.7,12.7,56,0.00,CLR,,0.00,WeatherDisplay:10.37,2013-05-02 12:43:00,
2013-05-02 08:48:00,51.4,35.8,30.36,SSE,152,13.8,13.8,55,0.00,CLR,,0.00,WeatherDisplay:10.37,2013-05-02 12:48:00,
2013-05-02 08:53:00,51.8,36.1,30.36,ESE,118,12.7,12.7,55,0.00,CLR,,0.00,WeatherDisplay:10.37,2013-05-02 12:53:00,
2013-05-02 08:58:00,52.0,35.8,30.36,ESE,117,12.7,12.7,54,0.00,CLR,,0.00,WeatherDisplay:10.37,2013-05-02 12:58:00,
2013-05-02 09:03:00,52.5,35.9,30.36,SSE,161,9.2,9.2,53,0.00,CLR,,0.00,WeatherDisplay:10.37,2013-05-02 13:03:00,
2013-05-02 09:08:00,53.2,36.1,30.36,ESE,118,11.5,11.5,52,0.00,CLR,,0.00,WeatherDisplay:10.37,2013-05-02 13:08:00,
2013-05-02 09:13:00,54.0,36.2,30.36,South,176,8.1,8.1,51,0.00,CLR,,0.00,WeatherDisplay:10.37,2013-05-02 13:13:00,
2013-05-02 09:18:00,54.5,36.2,30.36,SE,125,12.3,12.3,50,0.00,CLR,,0.00,WeatherDisplay:10.37,2013-05-02 13:18:00,
2013-05-02 09:23:00,54.7,35.4,30.36,SE,143,11.5,11.5,48,0.00,CLR,,0.00,WeatherDisplay:10.37,2013-05-02 13:23:00,
2013-05-02 09:28:00,55.2,35.9,30.36,East,89,3.5,3.5,48,0.00,CLR,,0.00,WeatherDisplay:10.37,2013-05-02 13:28:00,
2013-05-02 09:33:00,56.1,35.6,30.36,SE,140,11.5,11.5,46,0.00,CLR,,0.00,WeatherDisplay:10.37,2013-05-02 13:33:00,
2013-05-02 09:38:00,55.6,34.6,30.36,SSE,159,11.5,11.5,45,0.00,CLR,,0.00,WeatherDisplay:10.37,2013-05-02 13:38:00,
2013-05-02 09:43:00,55.6,35.1,30.36,SE,136,9.2,9.2,46,0.00,CLR,,0.00,WeatherDisplay:10.37,2013-05-02 13:43:00,
2013-05-02 09:48:00,55.6,34.6,30.36,ESE,120,8.1,8.1,45,0.00,CLR,,0.00,WeatherDisplay:10.37,2013-05-02 13:48:00,
2013-05-02 09:53:00,55.8,34.2,30.36,ESE,119,10.9,10.9,44,0.00,CLR,,0.00,WeatherDisplay:10.37,2013-05-02 13:53:00,
2013-05-02 09:58:00,56.3,34.6,30.36,SE,141,9.2,9.2,44,0.00,CLR,,0.00,WeatherDisplay:10.37,2013-05-02 13:58:00,
2013-05-02 10:03:00,56.7,35.0,30.36,ESE,112,4.6,4.6,44,0.00,CLR,,0.00,WeatherDisplay:10.37,2013-05-02 14:03:00,
2013-05-02 10:08:00,57.0,34.1,30.36,South,191,11.5,11.5,42,0.00,CLR,,0.00,WeatherDisplay:10.37,2013-05-02 14:08:00,
2013-05-02 10:13:00,57.2,34.3,30.36,SE,140,4.6,4.6,42,0.00,CLR,,0.00,WeatherDisplay:10.37,2013-05-02 14:13:00,
2013-05-02 10:18:00,57.6,32.8,30.36,East,96,8.1,8.1,39,0.00,CLR,,0.00,WeatherDisplay:10.37,2013-05-02 14:18:00,
2013-05-02 10:23:00,57.9,32.4,30.36,ESE,111,12.7,12.7,38,0.00,CLR,,0.00,WeatherDisplay:10.37,2013-05-02 14:23:00,
2013-05-02 10:28:00,58.1,32.6,30.36,South,190,9.2,9.2,38,0.00,CLR,,0.00,WeatherDisplay:10.37,2013-05-02 14:28:00,
2013-05-02 10:33:00,58.1,32.6,30.36,ESE,111,8.1,8.1,38,0.00,CLR,,0.00,WeatherDisplay:10.37,2013-05-02 14:33:00,
2013-05-02 10:38:00,58.6,32.4,30.36,SE,140,8.3,8.3,37,0.00,CLR,,0.00,WeatherDisplay:10.37,2013-05-02 14:38:00,
2013-05-02 10:43:00,59.4,32.4,30.36,ESE,119,8.7,8.7,36,0.00,CLR,,0.00,WeatherDisplay:10.37,2013-05-02 14:43:00,
2013-05-02 10:48:00,59.4,32.4,30.36,SE,135,8.3,8.3,36,0.00,CLR,,0.00,WeatherDisplay:10.37,2013-05-02 14:48:00,
2013-05-02 10:53:00,60.1,33.0,30.36,SSE,147,4.0,4.0,36,0.00,CLR,,0.00,WeatherDisplay:10.37,2013-05-02 14:53:00,
2013-05-02 10:58:00,60.3,33.2,30.36,SSW,192,8.3,8.3,36,0.00,CLR,,0.00,WeatherDisplay:10.37,2013-05-02 14:58:00,
2013-05-02 11:03:00,60.4,33.3,30.36,SW,223,8.1,8.1,36,0.00,CLR,,0.00,WeatherDisplay:10.37,2013-05-02 15:03:00,
2013-05-02 11:08:00,60.6,32.1,30.36,ESE,118,8.7,8.7,34,0.00,CLR,,0.00,WeatherDisplay:10.37,2013-05-02 15:08:00,
2013-05-02 11:13:00,60.6,32.8,30.36,South,174,5.8,5.8,35,0.00,CLR,,0.00,WeatherDisplay:10.37,2013-05-02 15:13:00,
2013-05-02 11:18:00,60.8,32.2,30.36,ESE,103,8.0,8.0,34,0.00,CLR,,0.00,WeatherDisplay:10.37,2013-05-02 15:18:00,
2013-05-02 11:23:00,61.3,32.7,30.36,ESE,105,10.4,10.4,34,0.00,CLR,,0.00,WeatherDisplay:10.37,2013-05-02 15:23:00,
2013-05-02 11:28:00,61.7,33.0,30.36,SE,134,8.1,8.1,34,0.00,CLR,,0.00,WeatherDisplay:10.37,2013-05-02 15:28:00,
2013-05-02 11:33:00,62.8,33.2,30.36,SSE,165,8.7,8.7,33,0.00,CLR,,0.00,WeatherDisplay:10.37,2013-05-02 15:33:00,
2013-05-02 11:38:00,63.0,33.4,30.36,SSE,166,12.7,12.7,33,0.00,CLR,,0.00,WeatherDisplay:10.37,2013-05-02 15:38:00,
2013-05-02 11:43:00,62.6,33.1,30.36,SE,133,11.5,11.5,33,0.00,CLR,,0.00,WeatherDisplay:10.37,2013-05-02 15:43:00,
2013-05-02 11:48:00,61.9,32.4,30.36,SE,130,9.2,9.2,33,0.00,CLR,,0.00,WeatherDisplay:10.37,2013-05-02 15:48:00,
2013-05-02 11:53:00,62.6,33.1,30.36,ESE,122,8.1,8.1,33,0.00,CLR,,0.00,WeatherDisplay:10.37,2013-05-02 15:53:00,
2013-05-02 11:58:00,63.3,33.7,30.33,SE,137,12.7,12.7,33,0.00,CLR,,0.00,WeatherDisplay:10.37,2013-05-02 15:58:00,
2013-05-02 12:03:00,63.7,34.0,30.33,South,169,6.3,6.3,33,0.00,CLR,,0.00,WeatherDisplay:10.37,2013-05-02 16:03:00,
2013-05-02 12:08:00,64.2,34.5,30.33,ESE,105,8.1,8.1,33,0.00,CLR,,0.00,WeatherDisplay:10.37,2013-05-02 16:08:00,
2013-05-02 12:13:00,64.4,33.9,30.33,South,183,10.4,10.4,32,0.00,CLR,,0.00,WeatherDisplay:10.37,2013-05-02 16:13:00,
2013-05-02 12:18:00,64.6,34.0,30.33,South,170,9.2,9.2,32,0.00,CLR,,0.00,WeatherDisplay:10.37,2013-05-02 16:18:00,
2013-05-02 12:23:00,65.3,34.7,30.33,SE,144,5.4,5.4,32,0.00,CLR,,0.00,WeatherDisplay:10.37,2013-05-02 16:23:00,
2013-05-02 12:28:00,65.5,34.8,30.33,ENE,73,5.8,5.8,32,0.00,CLR,,0.00,WeatherDisplay:10.37,2013-05-02 16:28:00,
2013-05-02 12:33:00,65.7,35.0,30.33,SE,132,5.8,5.8,32,0.00,CLR,,0.00,WeatherDisplay:10.37,2013-05-02 16:33:00,
2013-05-02 12:38:00,66.2,35.4,30.33,ESE,108,8.1,8.1,32,0.00,CLR,,0.00,WeatherDisplay:10.37,2013-05-02 16:38:00,
2013-05-02 12:43:00,65.8,35.1,30.33,NE,56,4.9,4.9,32,0.00,CLR,,0.00,WeatherDisplay:10.37,2013-05-02 16:43:00,
2013-05-02 12:48:00,66.2,35.4,30.33,East,92,13.2,13.2,32,0.00,CLR,,0.00,WeatherDisplay:10.37,2013-05-02 16:48:00,
2013-05-02 12:53:00,66.2,35.4,30.33,SE,129,8.0,8.0,32,0.00,CLR,,0.00,WeatherDisplay:10.37,2013-05-02 16:53:00,
2013-05-02 12:58:00,66.0,35.3,30.33,SE,124,12.7,12.7,32,0.00,CLR,,0.00,WeatherDisplay:10.37,2013-05-02 16:58:00,
2013-05-02 13:03:00,65.7,35.0,30.33,ESE,109,10.4,10.4,32,0.00,CLR,,0.00,WeatherDisplay:10.37,2013-05-02 17:03:00,
2013-05-02 13:08:00,65.8,35.1,30.33,SE,130,8.0,8.0,32,0.00,CLR,,0.00,WeatherDisplay:10.37,2013-05-02 17:08:00,
2013-05-02 13:13:00,66.4,35.6,30.33,East,90,8.1,8.1,32,0.00,CLR,,0.00,WeatherDisplay:10.37,2013-05-02 17:13:00,
2013-05-02 13:18:00,66.0,35.3,30.33,East,92,12.7,12.7,32,0.00,CLR,,0.00,WeatherDisplay:10.37,2013-05-02 17:18:00,
2013-05-02 13:23:00,66.6,35.8,30.33,ESE,121,10.4,10.4,32,0.00,CLR,,0.00,WeatherDisplay:10.37,2013-05-02 17:23:00,
2013-05-02 13:28:00,66.7,35.9,30.33,ESE,108,8.1,8.1,32,0.00,CLR,,0.00,WeatherDisplay:10.37,2013-05-02 17:28:00,
2013-05-02 13:33:00,66.6,35.8,30.33,ESE,118,12.7,12.7,32,0.00,CLR,,0.00,WeatherDisplay:10.37,2013-05-02 17:33:00,
2013-05-02 13:38:00,66.7,35.9,30.33,SSE,148,8.1,8.1,32,0.00,CLR,,0.00,WeatherDisplay:10.37,2013-05-02 17:38:00,
2013-05-02 13:43:00,66.9,35.3,30.33,ENE,76,5.8,5.8,31,0.00,CLR,,0.00,WeatherDisplay:10.37,2013-05-02 17:43:00,
2013-05-02 13:48:00,67.1,36.2,30.33,SSE,147,8.1,8.1,32,0.00,CLR,,0.00,WeatherDisplay:10.37,2013-05-02 17:48:00,
2013-05-02 13:53:00,67.5,35.7,30.33,East,88,11.5,11.5,31,0.00,CLR,,0.00,WeatherDisplay:10.37,2013-05-02 17:53:00,
2013-05-02 13:58:00,67.5,35.7,30.33,East,83,8.1,8.1,31,0.00,CLR,,0.00,WeatherDisplay:10.37,2013-05-02 17:58:00,
2013-05-02 14:03:00,67.6,35.9,30.33,East,92,12.7,12.7,31,0.00,CLR,,0.00,WeatherDisplay:10.37,2013-05-02 18:03:00,
2013-05-02 14:08:00,67.6,35.9,30.33,SE,133,10.4,10.4,31,0.00,CLR,,0.00,WeatherDisplay:10.37,2013-05-02 18:08:00,
2013-05-02 14:13:00,67.3,35.6,30.33,ESE,119,12.7,12.7,31,0.00,CLR,,0.00,WeatherDisplay:10.37,2013-05-02 18:13:00,
2013-05-02 14:18:00,67.8,36.1,30.33,SE,136,12.7,12.7,31,0.00,CLR,,0.00,WeatherDisplay:10.37,2013-05-02 18:18:00,
2013-05-02 14:23:00,67.5,35.7,30.33,ESE,117,15.0,15.0,31,0.00,CLR,,0.00,WeatherDisplay:10.37,2013-05-02 18:23:00,
2013-05-02 14:28:00,67.8,34.4,30.33,SSE,150,11.5,11.5,29,0.00,CLR,,0.00,WeatherDisplay:10.37,2013-05-02 18:28:00,
2013-05-02 14:33:00,68.4,36.5,30.33,ESE,119,12.7,12.7,31,0.00,CLR,,0.00,WeatherDisplay:10.37,2013-05-02 18:33:00,
2013-05-02 14:38:00,68.7,36.8,30.30,South,171,16.8,16.8,31,0.00,CLR,,0.00,WeatherDisplay:10.37,2013-05-02 18:38:00,
2013-05-02 14:43:00,68.7,36.8,30.30,SE,129,13.2,13.2,31,0.00,CLR,,0.00,WeatherDisplay:10.37,2013-05-02 18:43:00,
2013-05-02 14:48:00,68.9,37.0,30.30,ESE,104,8.7,8.7,31,0.00,CLR,,0.00,WeatherDisplay:10.37,2013-05-02 18:48:00,
2013-05-02 14:53:00,68.7,36.8,30.30,SE,129,11.5,11.5,31,0.00,CLR,,0.00,WeatherDisplay:10.37,2013-05-02 18:53:00,
2013-05-02 14:58:00,68.4,36.5,30.30,ENE,60,5.8,5.8,31,0.00,CLR,,0.00,WeatherDisplay:10.37,2013-05-02 18:58:00,
2013-05-02 15:03:00,68.7,36.8,30.30,SE,124,5.8,5.8,31,0.00,CLR,,0.00,WeatherDisplay:10.37,2013-05-02 19:03:00,
2013-05-02 15:08:00,68.9,35.3,30.30,SE,132,5.8,5.8,29,0.00,CLR,,0.00,WeatherDisplay:10.37,2013-05-02 19:08:00,
2013-05-02 15:13:00,68.9,37.0,30.30,ENE,71,12.7,12.7,31,0.00,CLR,,0.00,WeatherDisplay:10.37,2013-05-02 19:13:00,
2013-05-02 15:18:00,68.5,36.7,30.30,East,86,10.4,10.4,31,0.00,CLR,,0.00,WeatherDisplay:10.37,2013-05-02 19:18:00,
2013-05-02 15:23:00,69.1,37.2,30.30,SSE,167,11.5,11.5,31,0.00,CLR,,0.00,WeatherDisplay:10.37,2013-05-02 19:23:00,
2013-05-02 15:28:00,69.1,37.2,30.30,SSE,168,8.1,8.1,31,0.00,CLR,,0.00,WeatherDisplay:10.37,2013-05-02 19:28:00,
2013-05-02 15:33:00,69.3,35.6,30.30,ESE,103,12.7,12.7,29,0.00,CLR,,0.00,WeatherDisplay:10.37,2013-05-02 19:33:00,
2013-05-02 15:38:00,69.4,37.5,30.30,SE,140,8.1,8.1,31,0.00,CLR,,0.00,WeatherDisplay:10.37,2013-05-02 19:38:00,
2013-05-02 15:43:00,69.6,35.9,30.30,East,81,15.0,15.0,29,0.00,CLR,,0.00,WeatherDisplay:10.37,2013-05-02 19:43:00,
2013-05-02 15:48:00,69.6,35.9,30.30,ESE,118,13.8,13.8,29,0.00,CLR,,0.00,WeatherDisplay:10.37,2013-05-02 19:48:00,
2013-05-02 15:53:00,69.6,35.9,30.30,ESE,105,10.4,10.4,29,0.00,CLR,,0.00,WeatherDisplay:10.37,2013-05-02 19:53:00,
2013-05-02 15:58:00,70.2,35.5,30.27,ESE,119,10.9,10.9,28,0.00,CLR,,0.00,WeatherDisplay:10.37,2013-05-02 19:58:00,
2013-05-02 16:03:00,70.2,35.5,30.27,SSE,154,12.7,12.7,28,0.00,CLR,,0.00,WeatherDisplay:10.37,2013-05-02 20:03:00,
2013-05-02 16:08:00,70.0,35.4,30.27,South,191,11.5,11.5,28,0.00,CLR,,0.00,WeatherDisplay:10.37,2013-05-02 20:08:00,
2013-05-02 16:13:00,70.0,35.4,30.27,East,97,11.5,11.5,28,0.00,CLR,,0.00,WeatherDisplay:10.37,2013-05-02 20:13:00,
2013-05-02 16:18:00,70.3,35.7,30.27,ESE,109,9.2,9.2,28,0.00,CLR,,0.00,WeatherDisplay:10.37,2013-05-02 20:18:00,
2013-05-02 16:23:00,70.7,36.0,30.27,SE,140,13.8,13.8,28,0.00,CLR,,0.00,WeatherDisplay:10.37,2013-05-02 20:23:00,
2013-05-02 16:28:00,70.5,34.0,30.27,ESE,120,15.4,15.4,26,0.00,CLR,,0.00,WeatherDisplay:10.37,2013-05-02 20:28:00,
2013-05-02 16:33:00,70.3,33.8,30.27,ESE,120,10.4,10.4,26,0.00,CLR,,0.00,WeatherDisplay:10.37,2013-05-02 20:33:00,
2013-05-02 16:38:00,70.3,33.8,30.27,SE,144,8.1,8.1,26,0.00,CLR,,0.00,WeatherDisplay:10.37,2013-05-02 20:38:00,
2013-05-02 16:43:00,70.0,33.5,30.27,East,82,11.5,11.5,26,0.00,CLR,,0.00,WeatherDisplay:10.37,2013-05-02 20:43:00,
2013-05-02 16:48:00,69.8,33.3,30.27,SE,131,16.1,16.1,26,0.00,CLR,,0.00,WeatherDisplay:10.37,2013-05-02 20:48:00,
2013-05-02 16:53:00,69.8,33.3,30.27,East,90,11.5,11.5,26,0.00,CLR,,0.00,WeatherDisplay:10.37,2013-05-02 20:53:00,
2013-05-02 16:58:00,70.0,33.5,30.27,SE,127,11.5,11.5,26,0.00,CLR,,0.00,WeatherDisplay:10.37,2013-05-02 20:58:00,
2013-05-02 17:03:00,69.8,33.3,30.27,SSE,154,15.0,15.0,26,0.00,CLR,,0.00,WeatherDisplay:10.37,2013-05-02 21:03:00,
2013-05-02 17:08:00,69.8,33.3,30.27,SE,130,17.3,17.3,26,0.00,CLR,,0.00,WeatherDisplay:10.37,2013-05-02 21:08:00,
2013-05-02 17:13:00,69.4,33.0,30.27,South,182,18.8,18.8,26,0.00,CLR,,0.00,WeatherDisplay:10.37,2013-05-02 21:13:00,
2013-05-02 17:18:00,69.1,32.7,30.27,SSE,155,15.0,15.0,26,0.00,CLR,,0.00,WeatherDisplay:10.37,2013-05-02 21:18:00,
2013-05-02 17:23:00,69.3,32.9,30.27,SSE,155,16.1,16.1,26,0.00,CLR,,0.00,WeatherDisplay:10.37,2013-05-02 21:23:00,
2013-05-02 17:28:00,68.9,32.6,30.27,ESE,112,10.9,10.9,26,0.00,CLR,,0.00,WeatherDisplay:10.37,2013-05-02 21:28:00,
2013-05-02 17:33:00,68.9,32.6,30.27,SSE,152,12.7,12.7,26,0.00,CLR,,0.00,WeatherDisplay:10.37,2013-05-02 21:33:00,
2013-05-02 17:38:00,68.9,32.6,30.27,SSE,155,13.2,13.2,26,0.00,CLR,,0.00,WeatherDisplay:10.37,2013-05-02 21:38:00,
2013-05-02 17:43:00,68.7,32.4,30.27,WSW,254,11.5,11.5,26,0.00,CLR,,0.00,WeatherDisplay:10.37,2013-05-02 21:43:00,
2013-05-02 17:48:00,68.5,32.3,30.27,SSE,152,8.1,8.1,26,0.00,CLR,,0.00,WeatherDisplay:10.37,2013-05-02 21:48:00,
2013-05-02 17:53:00,68.4,32.1,30.27,SSE,161,5.8,5.8,26,0.00,CLR,,0.00,WeatherDisplay:10.37,2013-05-02 21:53:00,
2013-05-02 17:58:00,68.2,32.0,30.27,SE,143,11.5,11.5,26,0.00,CLR,,0.00,WeatherDisplay:10.37,2013-05-02 21:58:00,
2013-05-02 18:03:00,67.6,31.5,30.27,SSW,206,11.5,11.5,26,0.00,CLR,,0.00,WeatherDisplay:10.37,2013-05-02 22:03:00,
2013-05-02 18:08:00,67.5,31.3,30.27,SE,129,16.3,16.3,26,0.00,CLR,,0.00,WeatherDisplay:10.37,2013-05-02 22:08:00,
2013-05-02 18:13:00,66.9,30.9,30.27,SE,139,15.0,15.0,26,0.00,CLR,,0.00,WeatherDisplay:10.37,2013-05-02 22:13:00,
2013-05-02 18:18:00,66.6,30.6,30.27,ESE,116,12.7,12.7,26,0.00,CLR,,0.00,WeatherDisplay:10.37,2013-05-02 22:18:00,
2013-05-02 18:23:00,66.4,33.1,30.27,SW,219,10.4,10.4,29,0.00,CLR,,0.00,WeatherDisplay:10.37,2013-05-02 22:23:00,
2013-05-02 18:28:00,66.4,33.1,30.27,ESE,109,7.6,7.6,29,0.00,CLR,,0.00,WeatherDisplay:10.37,2013-05-02 22:28:00,
2013-05-02 18:33:00,66.0,32.8,30.27,SE,140,12.7,12.7,29,0.00,CLR,,0.00,WeatherDisplay:10.37,2013-05-02 22:33:00,
2013-05-02 18:38:00,65.8,32.7,30.24,SE,124,10.4,10.4,29,0.00,CLR,,0.00,WeatherDisplay:10.37,2013-05-02 22:38:00,
2013-05-02 18:43:00,65.7,32.5,30.24,ESE,119,13.2,13.2,29,0.00,CLR,,0.00,WeatherDisplay:10.37,2013-05-02 22:43:00,
2013-05-02 18:48:00,65.1,32.0,30.24,SE,135,15.0,15.0,29,0.00,CLR,,0.00,WeatherDisplay:10.37,2013-05-02 22:48:00,
2013-05-02 18:53:00,64.8,31.7,30.24,South,188,10.4,10.4,29,0.00,CLR,,0.00,WeatherDisplay:10.37,2013-05-02 22:53:00,
2013-05-02 18:58:00,64.4,31.4,30.24,SE,124,10.4,10.4,29,0.00,CLR,,0.00,WeatherDisplay:10.37,2013-05-02 22:58:00,
2013-05-02 19:03:00,64.2,32.1,30.24,SSE,156,10.4,10.4,30,0.00,CLR,,0.00,WeatherDisplay:10.37,2013-05-02 23:03:00,
2013-05-02 19:08:00,63.9,33.4,30.24,South,176,12.3,12.3,32,0.00,CLR,,0.00,WeatherDisplay:10.37,2013-05-02 23:08:00,
2013-05-02 19:13:00,63.5,33.1,30.24,SE,132,10.9,10.9,32,0.00,CLR,,0.00,WeatherDisplay:10.37,2013-05-02 23:13:00,
2013-05-02 19:18:00,63.1,32.8,30.24,SE,139,16.1,16.1,32,0.00,CLR,,0.00,WeatherDisplay:10.37,2013-05-02 23:18:00,
2013-05-02 19:23:00,62.8,32.5,30.24,East,97,15.0,15.0,32,0.00,CLR,,0.00,WeatherDisplay:10.37,2013-05-02 23:23:00,
2013-05-02 19:28:00,62.6,32.3,30.24,SSE,153,11.5,11.5,32,0.00,CLR,,0.00,WeatherDisplay:10.37,2013-05-02 23:28:00,
2013-05-02 19:33:00,62.2,32.8,30.24,SE,139,10.4,10.4,33,0.00,CLR,,0.00,WeatherDisplay:10.37,2013-05-02 23:33:00,
2013-05-02 19:38:00,61.7,32.3,30.27,SE,127,11.5,11.5,33,0.00,CLR,,0.00,WeatherDisplay:10.37,2013-05-02 23:38:00,
2013-05-02 19:43:00,61.7,32.3,30.27,SE,133,9.2,9.2,33,0.00,CLR,,0.00,WeatherDisplay:10.37,2013-05-02 23:43:00,
2013-05-02 19:48:00,61.3,32.0,30.27,East,99,9.2,9.2,33,0.00,CLR,,0.00,WeatherDisplay:10.37,2013-05-02 23:48:00,
2013-05-02 19:53:00,60.8,31.5,30.27,SSE,154,8.1,8.1,33,0.00,CLR,,0.00,WeatherDisplay:10.37,2013-05-02 23:53:00,
2013-05-02 19:58:00,60.4,31.9,30.27,SSE,154,5.8,5.8,34,0.00,CLR,,0.00,WeatherDisplay:10.37,2013-05-02 23:58:00,
2013-05-02 20:03:00,59.9,31.4,30.27,SSW,196,11.5,11.5,34,0.00,CLR,,0.00,WeatherDisplay:10.37,2013-05-03 00:03:00,
2013-05-02 20:08:00,59.7,31.3,30.27,South,180,8.7,8.7,34,0.00,CLR,,0.00,WeatherDisplay:10.37,2013-05-03 00:08:00,
2013-05-02 20:13:00,59.4,31.0,30.27,SE,141,8.1,8.1,34,0.00,CLR,,0.00,WeatherDisplay:10.37,2013-05-03 00:13:00,
2013-05-02 20:18:00,59.2,30.8,30.27,ESE,121,5.8,5.8,34,0.00,CLR,,0.00,WeatherDisplay:10.37,2013-05-03 00:18:00,
2013-05-02 20:23:00,59.0,30.6,30.27,South,172,9.2,9.2,34,0.00,CLR,,0.00,WeatherDisplay:10.37,2013-05-03 00:23:00,
2013-05-02 20:28:00,58.5,30.9,30.27,SE,146,9.2,9.2,35,0.00,CLR,,0.00,WeatherDisplay:10.37,2013-05-03 00:28:00,
2013-05-02 20:33:00,58.1,31.3,30.27,SE,145,10.4,10.4,36,0.00,CLR,,0.00,WeatherDisplay:10.37,2013-05-03 00:33:00,
2013-05-02 20:38:00,57.9,31.8,30.27,SE,126,10.4,10.4,37,0.00,CLR,,0.00,WeatherDisplay:10.37,2013-05-03 00:38:00,
2013-05-02 20:43:00,58.1,31.9,30.27,SE,125,12.7,12.7,37,0.00,CLR,,0.00,WeatherDisplay:10.37,2013-05-03 00:43:00,
2013-05-02 20:48:00,57.9,32.4,30.27,SSE,156,8.1,8.1,38,0.00,CLR,,0.00,WeatherDisplay:10.37,2013-05-03 00:48:00,
2013-05-02 20:53:00,57.9,33.1,30.27,ESE,119,8.1,8.1,39,0.00,CLR,,0.00,WeatherDisplay:10.37,2013-05-03 00:53:00,
2013-05-02 20:58:00,57.6,32.8,30.27,SSE,154,8.7,8.7,39,0.00,CLR,,0.00,WeatherDisplay:10.37,2013-05-03 00:58:00,
2013-05-02 21:03:00,57.2,34.3,30.27,SE,128,10.4,10.4,42,0.00,CLR,,0.00,WeatherDisplay:10.37,2013-05-03 01:03:00,
2013-05-02 21:08:00,57.2,34.9,30.27,SE,140,9.2,9.2,43,0.00,CLR,,0.00,WeatherDisplay:10.37,2013-05-03 01:08:00,
2013-05-02 21:13:00,57.0,35.3,30.27,ESE,102,11.5,11.5,44,0.00,CLR,,0.00,WeatherDisplay:10.37,2013-05-03 01:13:00,
2013-05-02 21:18:00,57.2,35.5,30.27,SE,136,11.5,11.5,44,0.00,CLR,,0.00,WeatherDisplay:10.37,2013-05-03 01:18:00,
2013-05-02 21:23:00,57.4,35.6,30.27,ESE,109,9.2,9.2,44,0.00,CLR,,0.00,WeatherDisplay:10.37,2013-05-03 01:23:00,
2013-05-02 21:28:00,57.0,35.3,30.27,ESE,119,8.1,8.1,44,0.00,CLR,,0.00,WeatherDisplay:10.37,2013-05-03 01:28:00,
2013-05-02 21:33:00,56.8,35.1,30.27,SSE,150,8.1,8.1,44,0.00,CLR,,0.00,WeatherDisplay:10.37,2013-05-03 01:33:00,
2013-05-02 21:38:00,56.8,35.7,30.27,South,169,8.1,8.1,45,0.00,CLR,,0.00,WeatherDisplay:10.37,2013-05-03 01:38:00,
2013-05-02 21:43:00,56.8,35.7,30.27,ESE,123,11.5,11.5,45,0.00,CLR,,0.00,WeatherDisplay:10.37,2013-05-03 01:43:00,
2013-05-02 21:48:00,57.0,35.9,30.27,SE,126,12.7,12.7,45,0.00,CLR,,0.00,WeatherDisplay:10.37,2013-05-03 01:48:00,
2013-05-02 21:53:00,56.8,35.7,30.27,ESE,117,10.5,10.5,45,0.00,CLR,,0.00,WeatherDisplay:10.37,2013-05-03 01:53:00,
2013-05-02 21:58:00,57.0,35.9,30.27,SE,127,18.4,18.4,45,0.00,CLR,,0.00,WeatherDisplay:10.37,2013-05-03 01:58:00,
2013-05-02 22:03:00,57.2,36.0,30.27,SE,142,9.2,9.2,45,0.00,CLR,,0.00,WeatherDisplay:10.37,2013-05-03 02:03:00,
2013-05-02 22:08:00,56.8,35.7,30.27,SE,132,8.1,8.1,45,0.00,CLR,,0.00,WeatherDisplay:10.37,2013-05-03 02:08:00,
2013-05-02 22:13:00,56.7,35.5,30.27,NE,47,10.5,10.5,45,0.00,CLR,,0.00,WeatherDisplay:10.37,2013-05-03 02:13:00,
2013-05-02 22:18:00,56.7,36.1,30.27,SE,140,8.1,8.1,46,0.00,CLR,,0.00,WeatherDisplay:10.37,2013-05-03 02:18:00,
2013-05-02 22:23:00,56.3,35.8,30.27,SE,142,8.1,8.1,46,0.00,CLR,,0.00,WeatherDisplay:10.37,2013-05-03 02:23:00,
2013-05-02 22:28:00,56.3,35.8,30.27,SSE,148,8.1,8.1,46,0.00,CLR,,0.00,WeatherDisplay:10.37,2013-05-03 02:28:00,
2013-05-02 22:33:00,55.8,35.3,30.27,SE,140,9.2,9.2,46,0.00,CLR,,0.00,WeatherDisplay:10.37,2013-05-03 02:33:00,
2013-05-02 22:38:00,55.6,35.7,30.24,East,94,8.1,8.1,47,0.00,CLR,,0.00,WeatherDisplay:10.37,2013-05-03 02:38:00,
2013-05-02 22:43:00,55.8,35.3,30.24,ESE,123,6.3,6.3,46,0.00,CLR,,0.00,WeatherDisplay:10.37,2013-05-03 02:43:00,
2013-05-02 22:48:00,55.4,34.9,30.24,SSE,147,12.7,12.7,46,0.00,CLR,,0.00,WeatherDisplay:10.37,2013-05-03 02:48:00,
2013-05-02 22:53:00,55.0,35.2,30.24,East,89,12.7,12.7,47,0.00,CLR,,0.00,WeatherDisplay:10.37,2013-05-03 02:53:00,
2013-05-02 22:58:00,54.9,35.0,30.24,SE,139,12.7,12.7,47,0.00,CLR,,0.00,WeatherDisplay:10.37,2013-05-03 02:58:00,
2013-05-02 23:03:00,55.0,35.7,30.24,SE,135,11.5,11.5,48,0.00,CLR,,0.00,WeatherDisplay:10.37,2013-05-03 03:03:00,
2013-05-02 23:08:00,54.9,35.5,30.24,SW,216,10.4,10.4,48,0.00,CLR,,0.00,WeatherDisplay:10.37,2013-05-03 03:08:00,
2013-05-02 23:13:00,54.5,35.7,30.27,SE,143,8.1,8.1,49,0.00,CLR,,0.00,WeatherDisplay:10.37,2013-05-03 03:13:00,
2013-05-02 23:18:00,54.1,35.4,30.27,SSE,166,8.1,8.1,49,0.00,CLR,,0.00,WeatherDisplay:10.37,2013-05-03 03:18:00,
2013-05-02 23:24:00,53.6,34.9,30.27,South,170,7.6,7.6,49,0.00,CLR,,0.00,WeatherDisplay:10.37,2013-05-03 03:24:00,
2013-05-02 23:29:00,53.1,35.4,30.27,East,99,8.1,8.1,51,0.00,CLR,,0.00,WeatherDisplay:10.37,2013-05-03 03:29:00,
2013-05-02 23:34:00,52.9,35.2,30.27,SSE,149,5.8,5.8,51,0.00,CLR,,0.00,WeatherDisplay:10.37,2013-05-03 03:34:00,
2013-05-02 23:39:00,52.7,35.6,30.27,South,175,5.8,5.8,52,0.00,CLR,,0.00,WeatherDisplay:10.37,2013-05-03 03:39:00,
2013-05-02 23:44:00,52.5,35.4,30.27,SSE,157,10.4,10.4,52,0.00,CLR,,0.00,WeatherDisplay:10.37,2013-05-03 03:44:00,
2013-05-02 23:49:00,52.5,35.9,30.27,SE,137,9.2,9.2,53,0.00,CLR,,0.00,WeatherDisplay:10.37,2013-05-03 03:49:00,
2013-05-02 23:54:00,52.2,35.5,30.27,South,176,8.1,8.1,53,0.00,CLR,,0.00,WeatherDisplay:10.37,2013-05-03 03:54:00,
2013-05-02 23:59:00,52.0,35.8,30.27,SE,130,11.5,11.5,54,0.00,CLR,,0.00,WeatherDisplay:10.37,2013-05-03 03:59:00,